{"data":{"norad_id":59756,"intl_designator":"2024-091D","name":"STARLINK-11131 [DTC]","alt_names":[],"object_type":"PAYLOAD","status":"ACTIVE","operator":null,"country":"US","launch_date":"2024-05-14","launch_site_code":"AFWTR","launch_vehicle":null,"mission":null,"orbit_class":"UNKNOWN","rcs_meters":null,"size_class":null,"mass_kg":null,"dimensions":null,"purposes":["comms"],"wikipedia_slug":null,"has_3d_model":false,"image_url":null,"decayed_at":null,"tle_current":{"epoch":"2026-05-24T20:29:53.491776Z","epoch_age_seconds":83738,"freshness":"FRESH","line1":"1 59756U 24091D   26144.85409134  .00001572  00000+0  17835-4 0  9991","line2":"2 59756  53.1582 190.9652 0001287  86.1934 273.9231 15.69712139117470","mean_motion":15.69712139,"eccentricity":0.0001287,"inclination_deg":53.1582,"raan_deg":190.9652,"arg_perigee_deg":86.1934,"mean_anomaly_deg":273.9231,"bstar":1.7835e-5,"rev_number":11747,"period_min":91.736565209808,"perigee_km":358.85346715059,"apogee_km":360.58779170441,"semimajor_km":6737.8576294275,"source":"CELESTRAK","updated_at":"2026-05-25T13:38:19.056023Z"}}}